Overview Statistics Trail Chart Weather Telemetry Raw packets
 

This is the latest recevied weather packets stored in our database for station/object DG9VH-13. If no packets are shown the sender has not sent any weather packets the latest 10 day(s).

<< 3 4 5 6 7 8 9 >>
Time Temp. Humidity Pressure Rain* Wind** Luminosity Snow
1788639601 19.44° C 52% 1008.3 hPa - - - -
1788639002 20° C 51% 1008.3 hPa - - - -
1788638402 20° C 51% 1008.4 hPa - - - -
1788637803 20.56° C 50% 1008.1 hPa - - - -
1788637202 20.56° C 49% 1008 hPa - - - -
1788636601 20.56° C 49% 1008 hPa - - - -
1788636000 21.11° C 47% 1007.9 hPa - - - -
1788635402 21.11° C 47% 1007.8 hPa - - - -
1788634802 21.67° C 45% 1007.5 hPa - - - -
1788634202 21.67° C 45% 1007.4 hPa - - - -
1788633604 22.22° C 44% 1007.4 hPa - - - -
1788633002 22.78° C 42% 1007.4 hPa - - - -
1788632402 23.33° C 40% 1007.2 hPa - - - -
1788631802 23.33° C 39% 1007.1 hPa - - - -
1788631202 23.89° C 39% 1007 hPa - - - -
1788630602 23.89° C 38% 1007 hPa - - - -
1788630002 23.89° C 37% 1006.9 hPa - - - -
1788629402 23.89° C 36% 1006.8 hPa - - - -
1788628801 23.89° C 36% 1006.7 hPa - - - -
1788628201 24.44° C 36% 1006.6 hPa - - - -
1788627604 23.89° C 36% 1006.7 hPa - - - -
1788627002 24.44° C 35% 1006.5 hPa - - - -
1788626401 24.44° C 35% 1006.5 hPa - - - -
1788625802 25° C 35% 1006.3 hPa - - - -
1788625202 25° C 33% 1006.2 hPa - - - -

* Rain since midnight (hover to see other rain measurements)
** Current wind speed in m/s (hover to see current wind gust speed)